[[{"header":{"parameterUnit":"m.s-1","parameterCategory":1,"la1":30.2991,"la2":30.254,"lo1":-89.0895,"lo2":-89.0444,"dy":0.0017,"dx":0.0017,"nx":28,"ny":28,"refTime":"2024-11-23T03:00:00:Z","depth":0,"parameterNumber":2,"parameterNumberName":"U-component_of_WINDS"},"data":[0,0,0,0,0,0,0,0,0,0,0,0,0,0,0,0,0,0,0,0,0,0,0,0,0,0,0,0,0,0,0,0,0,0,0,0,0,0,0,0,0,0,0,0,0,0,0,0,0,0,0,0,0,0,0,0,0,0,-1.4499,-1.45,0,-1.4573,-1.4574,-1.4574,-1.4501,-1.4498,-1.4495,-1.4492,-1.4571,-1.4575,-1.458,0,0,0,0,0,0,0,0,0,0,0,0,0,-1.4296,-1.43,-1.4499,-1.45,-1.4501,-1.4573,-1.4574,-1.4575,-1.4501,-1.4498,-1.4494,-1.4491,-1.4569,-1.4575,-1.458,0,0,0,0,0,0,0,0,0,0,0,0,0,-1.4379,-1.4301,-1.4499,-1.4473,-1.4471,-1.4572,-1.4574,-1.4575,-1.4502,-1.4498,-1.4493,-1.4489,-1.4567,-1.4574,-1.4581,-1.4713,0,0,-1.4603,-1.4606,0,0,0,0,0,0,0,0,-1.4374,-1.4386,-1.4476,-1.4475,-1.4473,-1.4523,-1.4531,-1.4621,-1.4503,-1.449,-1.4492,-1.4487,-1.4558,-1.4566,-1.459,-1.4716,-1.472,-1.4604,-1.4608,-1.4611,-1.4613,0,0,0,0,0,0,0,-1.4368,-1.4382,-1.4528,-1.4477,-1.4476,-1.4458,-1.4465,-1.4548,-1.4548,-1.4491,-1.4486,-1.4496,-1.4557,-1.4583,-1.4591,-1.4721,-1.4604,-1.461,-1.4614,-1.4617,-1.4958,-1.4963,0,0,0,0,0,0,-1.4365,-1.4378,-1.4526,-1.453,-1.4412,-1.4465,-1.4473,-1.4512,-1.4547,-1.4548,-1.4499,-1.4492,-1.4573,-1.4583,-1.4593,-1.4749,-1.4611,-1.4618,-1.4622,-1.4953,-1.4959,-1.4964,0,0,0,0,0,0,-1.4361,-1.4379,-1.4523,-1.4453,-1.447,-1.4473,-1.4517,-1.4515,-1.4541,-1.4553,-1.4553,-1.4526,-1.457,-1.4583,-1.4683,-1.4751,-1.4621,-1.4628,-1.4948,-1.4955,-1.4962,-1.5063,0,0,0,0,0,0,-1.4356,-1.4378,-1.4428,-1.4455,-1.4474,-1.4612,-1.4521,-1.452,-1.4553,-1.4544,-1.4578,-1.4579,-1.4567,-1.4673,-1.469,-1.4759,-1.4633,-1.4942,-1.4951,-1.4959,-1.5054,-1.5073,-1.5089,0,0,0,0,0,-1.4349,-1.4454,-1.4431,-1.4449,-1.4536,-1.4616,-1.4627,-1.461,-1.4559,-1.4609,-1.4617,-1.4578,-1.474,-1.4684,-1.4703,-1.4774,-1.4937,-1.4948,-1.4959,-1.5046,-1.5069,-1.5089,0,0,0,0,0,0,-1.4437,-1.4458,-1.4432,-1.4549,-1.4581,-1.4603,-1.4666,-1.4636,-1.4684,-1.4674,-1.4652,-1.466,-1.4766,-1.4779,-1.4716,-1.4903,-1.4831,-1.4846,-1.489,-1.4912,-1.493,-1.4925,-1.4639,0,0,0,0,0,-1.447,-1.4532,-1.4547,-1.4649,-1.4666,-1.4664,-1.4698,-1.4682,-1.4714,-1.4728,-1.4743,-1.4776,-1.4835,-1.4874,-1.4929,-1.5054,-1.5061,-1.5113,-1.5131,-1.5145,-1.5159,-1.5226,-1.525,-1.4999,-1.4999,-1.4999,0,0,-1.454,-1.4558,-1.4599,-1.4667,-1.469,-1.4756,-1.4676,-1.4748,-1.4797,-1.4739,-1.4834,-1.4846,-1.4882,-1.4996,-1.5046,-1.5011,-1.5229,-1.5159,-1.517,-1.5176,-1.5239,-1.5263,-1.5284,-1.5007,-1.5005,-1.5004,0,0,-1.4699,-1.4719,-1.4807,-1.4831,-1.4866,-1.4863,-1.4884,-1.491,-1.4915,-1.501,-1.4968,-1.5025,-1.5126,-1.5154,-1.5181,-1.5349,-1.5315,-1.5367,-1.546,-1.5526,-1.5546,-1.5563,-1.5623,-1.5645,-1.538,-1.538,-1.5381,0,-1.4782,-1.4878,-1.4856,-1.4931,-1.4962,-1.4911,-1.5,-1.5024,-1.5076,-1.5099,-1.5057,-1.5183,-1.5203,-1.5322,-1.5363,-1.5386,-1.541,-1.5364,-1.5544,-1.5562,-1.5578,-1.5635,-1.5658,-1.5387,-1.5386,-1.5385,-1.5385,0,-1.4977,-1.5044,-1.5111,-1.516,-1.5199,-1.528,-1.5271,-1.5312,-1.5293,-1.5294,-1.5391,-1.5413,-1.5471,-1.5498,-1.548,-1.5614,-1.5591,-1.5547,-1.5475,-1.5608,-1.5661,-1.5683,-1.5395,-1.5393,-1.5391,-1.539,0,0,-1.5198,-1.5232,-1.5257,-1.5279,-1.5312,-1.5364,-1.5443,-1.5498,-1.5535,-1.5571,-1.5637,-1.5723,-1.5682,-1.5713,-1.5697,-1.5755,-1.5886,-1.5704,-1.5705,-1.5738,-1.6036,-1.6069,-1.6095,-1.5863,-1.5867,-1.587,-1.6033,0,-1.5359,-1.5495,-1.5477,-1.5608,-1.567,-1.5621,-1.5689,-1.5718,-1.5721,-1.5774,-1.5777,-1.5838,-1.578,-1.5798,-1.5852,-1.5859,-1.5946,-1.5847,-1.5925,-1.5928,-1.5919,-1.6123,-1.6159,-1.6311,-1.6054,-1.6057,-1.606,0,-1.5566,-1.5609,-1.5746,-1.5769,-1.5794,-1.5856,-1.5905,-1.5956,-1.5987,-1.5984,-1.6018,-1.5991,-1.607,-1.5994,-1.6103,-1.6036,-1.6066,-1.6074,-1.6079,-1.6087,-1.6003,-1.6137,-1.6359,-1.6383,-1.6092,-1.609,-1.6087,0,-1.5714,-1.5806,-1.5899,-1.5919,-1.5948,-1.5993,-1.6007,-1.6033,-1.6068,-1.611,-1.6132,-1.6183,-1.6212,-1.6252,-1.624,-1.6186,-1.6351,-1.6274,-1.6352,-1.6353,-1.6391,-1.6389,-1.6622,-1.6409,-1.6408,-1.6408,-1.6408,0,-1.5897,-1.5983,-1.5966,-1.6024,-1.6119,-1.6096,-1.619,-1.6199,-1.6222,-1.6281,-1.6241,-1.6297,-1.6277,-1.6332,-1.6323,-1.6414,-1.6427,-1.6428,-1.6425,-1.6432,-1.6433,-1.6453,-1.6443,-1.6414,-1.6413,-1.6412,-1.641,0,-1.608,-1.6071,-1.617,-1.6189,-1.6195,-1.6265,-1.628,-1.6335,-1.6333,-1.6408,-1.6424,-1.6423,-1.6485,-1.6476,-1.6546,-1.654,-1.6653,-1.6637,-1.6643,-1.664,-1.6719,-1.6712,-1.6975,-1.7008,-1.6772,-1.6774,-1.6776,0,-1.6198,-1.6263,-1.6287,-1.6323,-1.634,-1.6399,-1.6433,-1.6412,-1.645,-1.6488,-1.6538,-1.6596,-1.6642,-1.6744,-1.6749,-1.6802,-1.6787,-1.6875,-1.6795,-1.68,-1.6789,-1.6786,-1.6792,-1.6892,-1.6895,-1.6897,-1.6899,0,-1.6409,-1.6401,-1.6451,-1.65,-1.6541,-1.6579,-1.6612,-1.6644,-1.6626,-1.667,-1.6732,-1.6768,-1.6838,-1.6896,-1.6945,-1.696,-1.6927,-1.6923,-1.6944,-1.6954,-1.6955,-1.6956,-1.6688,-1.6918,-1.6916,-1.6915,-1.6914,-1.6913,-1.6563,-1.6618,-1.6644,-1.6701,-1.6723,-1.6755,-1.6807,-1.6811,-1.6863,-1.6918,-1.6902,-1.6973,-1.7001,-1.7063,-1.7083,-1.7138,-1.7105,-1.7136,-1.7144,-1.7152,-1.7161,-1.6945,-1.7147,-1.7146,-1.7145,-1.7145,-1.7145,0,-1.6773,-1.6786,-1.6838,-1.6886,-1.6931,-1.6893,-1.6928,-1.6968,-1.7031,-1.7059,-1.7104,-1.7175,-1.7231,-1.724,-1.7293,-1.7336,-1.7322,-1.7351,-1.7348,-1.7352,-1.7187,-1.7164,-1.7361,-1.7361,-1.7361,-1.7361,-1.7361,-1.7361,-1.6887,-1.6978,-1.6973,-1.7074,-1.7087,-1.7156,-1.7179,-1.7208,-1.723,-1.7311,-1.7357,-1.7362,-1.7382,-1.7436,-1.7486,-1.7487,-1.7508,-1.7543,-1.7539,-1.7385,-1.7364,-1.7343,-1.7321,-1.7548,-1.7548,-1.7699,-1.77,-1.7702]},{"header":{"parameterUnit":"m.s-1","parameterCategory":1,"la1":30.2991,"la2":30.254,"lo1":-89.0895,"lo2":-89.0444,"dy":0.0017,"dx":0.0017,"nx":28,"ny":28,"refTime":"2024-11-23T03:00:00:Z","depth":0,"parameterNumber":3,"parameterNumberName":"V-component_of_WINDS"},"data":[0,0,0,0,0,0,0,0,0,0,0,0,0,0,0,0,0,0,0,0,0,0,0,0,0,0,0,0,0,0,0,0,0,0,0,0,0,0,0,0,0,0,0,0,0,0,0,0,0,0,0,0,0,0,0,0,0,0,-4.6293,-4.6294,0,-4.6398,-4.6399,-4.64,-4.6326,-4.6322,-4.6319,-4.6316,-4.642,-4.6426,-4.6432,0,0,0,0,0,0,0,0,0,0,0,0,0,-4.6023,-4.6028,-4.6293,-4.6294,-4.6295,-4.6398,-4.6399,-4.6401,-4.6326,-4.6322,-4.6318,-4.6314,-4.6418,-4.6425,-4.6432,0,0,0,0,0,0,0,0,0,0,0,0,0,-4.6135,-4.603,-4.6293,-4.6271,-4.627,-4.6398,-4.6399,-4.6401,-4.6327,-4.6322,-4.6317,-4.6312,-4.6416,-4.6425,-4.6433,-4.6587,0,0,-4.646,-4.6464,0,0,0,0,0,0,0,0,-4.6129,-4.6145,-4.6273,-4.6272,-4.6272,-4.6344,-4.6342,-4.6463,-4.6328,-4.6305,-4.6316,-4.631,-4.6399,-4.6409,-4.6439,-4.6592,-4.6597,-4.6461,-4.6466,-4.647,-4.6473,0,0,0,0,0,0,0,-4.6121,-4.614,-4.6334,-4.6274,-4.6274,-4.6254,-4.6264,-4.6365,-4.6378,-4.6307,-4.6302,-4.6315,-4.6397,-4.6431,-4.6441,-4.6598,-4.6461,-4.6469,-4.6474,-4.6478,-4.688,-4.6885,0,0,0,0,0,0,-4.6116,-4.6134,-4.6331,-4.6337,-4.6187,-4.6263,-4.6275,-4.6326,-4.6377,-4.638,-4.6319,-4.6311,-4.6418,-4.6431,-4.6444,-4.6626,-4.647,-4.6478,-4.6483,-4.6875,-4.6881,-4.6887,0,0,0,0,0,0,-4.611,-4.6134,-4.6327,-4.6234,-4.6257,-4.6273,-4.6331,-4.633,-4.6364,-4.6387,-4.6388,-4.6352,-4.6415,-4.6432,-4.6552,-4.6629,-4.6482,-4.649,-4.6868,-4.6877,-4.6884,-4.6993,0,0,0,0,0,0,-4.6103,-4.6133,-4.6193,-4.6236,-4.6263,-4.6435,-4.6335,-4.6336,-4.6379,-4.637,-4.6417,-4.642,-4.6412,-4.6539,-4.6561,-4.6639,-4.6497,-4.6861,-4.6872,-4.6882,-4.6983,-4.7004,-4.7022,0,0,0,0,0,-4.6094,-4.6219,-4.6196,-4.622,-4.6338,-4.6439,-4.6454,-4.6443,-4.6386,-4.6445,-4.646,-4.6419,-4.6617,-4.6552,-4.6576,-4.6657,-4.6857,-4.6869,-4.6881,-4.6974,-4.7,-4.7022,0,0,0,0,0,0,-4.6184,-4.6225,-4.62,-4.6343,-4.6388,-4.6426,-4.6501,-4.6471,-4.6533,-4.6521,-4.6504,-4.6515,-4.6641,-4.6661,-4.6588,-4.6808,-4.6728,-4.6745,-4.679,-4.6815,-4.6834,-4.6827,-4.6505,0,0,0,0,0,-4.622,-4.63,-4.6331,-4.6455,-4.6479,-4.6486,-4.653,-4.6517,-4.6563,-4.6581,-4.6605,-4.6649,-4.6721,-4.6769,-4.6837,-4.6985,-4.6993,-4.7053,-4.7072,-4.7088,-4.7103,-4.7181,-4.7207,-4.6927,-4.6927,-4.6927,0,0,-4.6297,-4.6329,-4.638,-4.6474,-4.6507,-4.6588,-4.6503,-4.6593,-4.6652,-4.6595,-4.6709,-4.6728,-4.6776,-4.691,-4.6971,-4.6931,-4.7182,-4.7104,-4.7116,-4.7123,-4.7196,-4.7223,-4.7246,-4.6935,-4.6934,-4.6932,0,0,-4.6478,-4.6511,-4.6616,-4.6652,-4.6703,-4.6707,-4.6732,-4.6775,-4.6785,-4.69,-4.6858,-4.6927,-4.7053,-4.7088,-4.7123,-4.7314,-4.7278,-4.7337,-4.744,-4.7515,-4.7537,-4.7557,-4.7624,-4.7648,-4.7352,-4.7352,-4.7352,0,-4.6566,-4.6688,-4.6674,-4.6767,-4.6809,-4.676,-4.6866,-4.69,-4.6971,-4.7,-4.6955,-4.7109,-4.7139,-4.7279,-4.7326,-4.7356,-4.7383,-4.7331,-4.7536,-4.7555,-4.7573,-4.7636,-4.7662,-4.7359,-4.7358,-4.7357,-4.7357,0,-4.6793,-4.6878,-4.6957,-4.7027,-4.7077,-4.7176,-4.7176,-4.7228,-4.721,-4.7218,-4.7334,-4.7368,-4.744,-4.7473,-4.7457,-4.7611,-4.7584,-4.7538,-4.7457,-4.7607,-4.7666,-4.769,-4.7368,-4.7366,-4.7364,-4.7362,0,0,-4.7035,-4.7095,-4.7124,-4.7154,-4.7207,-4.7271,-4.7367,-4.7438,-4.7482,-4.7532,-4.7611,-4.7717,-4.7673,-4.7713,-4.77,-4.7766,-4.7914,-4.7711,-4.7712,-4.7747,-4.8083,-4.8117,-4.8146,-4.789,-4.7895,-4.7898,-4.8079,0,-4.7217,-4.7385,-4.7374,-4.7532,-4.7609,-4.7563,-4.7645,-4.7685,-4.7695,-4.776,-4.777,-4.7845,-4.7783,-4.7806,-4.787,-4.7883,-4.7981,-4.7869,-4.7961,-4.7964,-4.795,-4.8177,-4.8214,-4.8383,-4.8102,-4.8106,-4.8109,0,-4.7453,-4.7511,-4.7676,-4.7715,-4.7747,-4.7822,-4.7885,-4.7949,-4.7993,-4.7994,-4.8038,-4.8013,-4.8107,-4.8024,-4.8152,-4.8076,-4.8113,-4.8124,-4.8131,-4.8138,-4.8045,-4.819,-4.8437,-4.8462,-4.8145,-4.8142,-4.814,0,-4.7611,-4.7731,-4.7844,-4.7872,-4.792,-4.7973,-4.7996,-4.8034,-4.8077,-4.8132,-4.816,-4.8225,-4.826,-4.831,-4.8303,-4.8243,-4.8433,-4.835,-4.8436,-4.8436,-4.8478,-4.8475,-4.8733,-4.8503,-4.8502,-4.8502,-4.8501,0,-4.7816,-4.7918,-4.7916,-4.7986,-4.8098,-4.8083,-4.8195,-4.8211,-4.8245,-4.8316,-4.8279,-4.8346,-4.8333,-4.8399,-4.8394,-4.8499,-4.8516,-4.8519,-4.8516,-4.8522,-4.8521,-4.8545,-4.8533,-4.8509,-4.8507,-4.8506,-4.8505,0,-4.8012,-4.8014,-4.8135,-4.817,-4.8182,-4.8263,-4.8292,-4.8357,-4.8363,-4.8453,-4.8473,-4.8481,-4.8557,-4.8555,-4.8641,-4.8637,-4.8766,-4.875,-4.8752,-4.8749,-4.8834,-4.8826,-4.9116,-4.9152,-4.89,-4.8902,-4.8904,0,-4.8142,-4.822,-4.8263,-4.8308,-4.8334,-4.8407,-4.8451,-4.8439,-4.8485,-4.8539,-4.8597,-4.8669,-4.8727,-4.8849,-4.8862,-4.8927,-4.8911,-4.9008,-4.8921,-4.8923,-4.8911,-4.8906,-4.8913,-4.9026,-4.9028,-4.9031,-4.9033,0,-4.8372,-4.8369,-4.8434,-4.8499,-4.8552,-4.8602,-4.8648,-4.8687,-4.8679,-4.8733,-4.881,-4.8854,-4.8941,-4.9013,-4.9074,-4.9095,-4.9063,-4.906,-4.9083,-4.909,-4.9087,-4.9088,-4.8798,-4.9053,-4.9051,-4.905,-4.9049,-4.9048,-4.8539,-4.8605,-4.8645,-4.8718,-4.8751,-4.8794,-4.8857,-4.887,-4.8934,-4.9005,-4.8993,-4.9079,-4.9117,-4.9197,-4.9223,-4.9289,-4.9254,-4.9288,-4.9297,-4.9305,-4.9314,-4.9077,-4.93,-4.9299,-4.9299,-4.9298,-4.9298,0,-4.8766,-4.8789,-4.8856,-4.8922,-4.8978,-4.8943,-4.8991,-4.904,-4.9117,-4.9156,-4.9213,-4.93,-4.9368,-4.9386,-4.9452,-4.9501,-4.9487,-4.9518,-4.9514,-4.9519,-4.9342,-4.9315,-4.9528,-4.9528,-4.9528,-4.9528,-4.9528,-4.9528,-4.8891,-4.9,-4.9001,-4.9126,-4.9148,-4.9232,-4.9263,-4.9302,-4.9333,-4.9432,-4.9489,-4.95,-4.953,-4.9597,-4.9658,-4.9661,-4.9686,-4.9723,-4.972,-4.9555,-4.9532,-4.951,-4.9484,-4.9729,-4.9729,-4.9892,-4.9893,-4.9894]}]]